Zurück zum Katalog

COBE

AktivWissenschaftSSO
NORAD 20322·PAYLOAD·🇺🇸 United States

Gestartet Nov 18, 1989 von Vandenberg Space Force Base

Loading…

Nächste Überflüge (nächste 24 Stunden)

TLE

AktuellSource: Space-Track

Epoche: Sep 14, 2026, 10:12 UTC

1 20322U 89089A   26257.42558750 -.00000184  00000-0 -86379-4 0  9993
2 20322  98.9017 257.8912 0008313 183.7301 339.7182 14.05477733887194

Verfolge COBE in Echtzeit mit AllMySat

Download on the App Store